カタログに戻る

SCOUT B DEB

LostUNKNOWN
NORAD 29009·DEBRIS·🇺🇸 United States

打ち上げ Aug 10, 1965 から Wallops Flight Facility

Loading…

次のパス (今後24時間)

TLE

古いSource: Space-Track

元期: Jun 16, 2026, 04:06 UTC

1 29009U 65063P   26167.17149056 -.00000946  00000-0 -47749-2 0  9999
2 29009  69.2136 117.3166 0809687 297.5937  72.8925 11.93870896 20113

AllMySatでSCOUT B DEBをリアルタイム追跡

Download on the App Store